Regional Weather Roundup
Issued by NWS

Home | Current Version | Previous Version | Graphics & Text | Print | Product List | Glossary Off
Versions: 1 2 3 4 5 6 7 8 9 10 11 12 13 14 15 16 17 18 19 20 21 22 23 24 25 26 27 28 29 30 31 32 33 34 35 36 37 38 39 40 41 42 43 44 45 46 47 48 49 50

000
ASUS43 KLMK 261010
RWRKY
KENTUCKY REGIONAL WEATHER ROUNDUP
NATIONAL WEATHER SERVICE LOUISVILLE KY
600 AM EDT TUE MAY 26 2015

NOTE "FAIR" INDICATES FEW OR NO CLOUDS BELOW 12,000 FEET
WITH NO SIGNIFICANT WEATHER AND/OR OBSTRUCTIONS TO VISIBILITY.

KYZ001>023-026-027-061>063-070>075-261100-
WESTERN AND SOUTH CENTRAL KENTUCKY

CITY           SKY/WX    TMP DP  RH WIND       PRES   REMARKS
PADUCAH        CLOUDY    70  66  87 SE9       29.96F
HENDERSON      MOCLDY    68  63  83 S10       30.00F
OWENSBORO      MOCLDY    67  65  93 S8        30.04S
HOPKINSVILLE   MOCLDY    67  64  90 SE8       30.04R
BOWLING GREEN  CLOUDY    67  63  87 SE9       30.08F
GLASGOW        PTCLDY    66  64  91 S7        30.10S
$$

KYZ024-025-028>034-038-045-046-053-261100-
NORTH CENTRAL KENTUCKY

CITY           SKY/WX    TMP DP  RH WIND       PRES   REMARKS
LOUISVILLE/SDF MOCLDY    67  64  90 SE7       30.08S
LOUISVILLE/LOU MOCLDY    67  64  90 SE5       30.09R
FORT KNOX      MOCLDY    65  63  92 SE7       30.07S
$$

KYZ035>037-039>044-047>052-055>060-089>105-261100-
NORTHEAST KENTUCKY

CITY           SKY/WX    TMP DP  RH WIND       PRES   REMARKS
LEXINGTON      MOCLDY    67  64  90 S9        30.13R
COVINGTON      MOCLDY    66  63  90 S7        30.10S
FRANKFORT      MOCLDY    65  62  90 SE3       30.10S
$$

KYZ054-064>069-076>088-106>120-261100-
SOUTHEAST KENTUCKY

CITY           SKY/WX    TMP DP  RH WIND       PRES   REMARKS
JACKSON        CLOUDY    68  62  81 VRB3      30.18R
LONDON         MOCLDY    68  61  78 CALM      30.17R
SOMERSET       PTCLDY    64  64 100 SE3       30.16R
MIDDLESBORO    MOCLDY    66  65  97 CALM      30.20R
MONTICELLO     MOSUNNY   69  65  87 S8        30.17R
$$



USA.gov is the U.S. government's official web portal to all federal, state and local government web resources and services.